Location: Unspecified
(0.0000°N, 0.0000°E)
Time: 00:38:50
(UTC+00:00)

QIANFAN-31 - Pass Details

Date: 09 March 2026
Orbit: 1037 x 1049 km, 89.0° (Epoch: 14 April)

Event Time Altitude Azimuth Distance (km) Brightness Sun altitude
Rises 18:28:23 0° 204° (SSW) 3,817 ? -4.5°
Reaches altitude 10° 18:31:32 10° 218° (SW) 2,861 ? -5.3°
Maximum altitude 18:36:24 22° 267° (W) 2,092 ? -6.5°
Drops below altitude 10° 18:41:16 10° 315° (NW) 2,850 ? -7.7°
Sets 18:44:25 0° 330° (NNW) 3,798 ? -8.5°
